Change the Weather History Date:

Monday, November 28, 2011

  Actual Average Record
Temperature  
Mean Temperature 39 °F -  
Max Temperature 57 °F 36 °F 57 °F (2011)
Min Temperature 21 °F 10 °F -9 °F (1976)
Degree Days  
Heating Degree Days 26    
Moisture  
Dew Point 17 °F    
Average Humidity 49    
Maximum Humidity 85    
Minimum Humidity 16    
Precipitation  
Precipitation 0.00 in - - ()
Sea Level Pressure  
Sea Level Pressure 30.28 in    
Wind  
Wind Speed 6 mph (West)    
Max Wind Speed 10 mph    
Max Gust Speed -    
Visibility 10 miles    
Events Snow    
Averages and records for this station are not official NWS values.
T = Trace of Precipitation, MM = Missing Value Source: NWS Daily Summary

Daily Weather History Graph

Daily Weather History Graph

Search for Another Location

Airport or City:

Trip Planner

Search our weather history database for the weather conditions in past years. The results will help you decide how hot, cold, wet, or windy it might be!

Date:

Astronomy

Nov. 28, 2011 Rise Set
Actual Time 7:21 AM MST 5:10 PM MST
Civil Twilight 6:53 AM MST 5:39 PM MST
Nautical Twilight 6:20 AM MST 6:11 PM MST
Astronomical Twilight 5:49 AM MST 6:43 PM MST
Moon 10:34 AM MST (11/28) 9:00 PM MST (11/28)
Length of Visible Light 10h 46m
Length of Day
9h 48m
Waxing Crescent, 16% of the Moon is Illuminated
Nov 28
Waxing Crescent
Dec 2
First Quarter
Dec 10
Full
Dec 17
Last Quarter
Dec 24
New

Hourly Weather History & Observations

Time (MST) Temp. Windchill Dew Point Humidity Pressure Visibility Wind Dir Wind Speed Gust Speed Precip Events Conditions
12:53 AM 28.0 °F 18.6 °F 18.0 °F 66% 30.33 in 10.0 mi West 10.4 mph - N/A   Clear
1:53 AM 23.0 °F 14.7 °F 18.0 °F 81% 30.33 in 10.0 mi West 6.9 mph - N/A   Clear
2:53 AM 24.1 °F 17.0 °F 18.0 °F 77% 30.33 in 10.0 mi West 5.8 mph - N/A   Clear
3:53 AM 24.1 °F 19.7 °F 16.0 °F 71% 30.33 in 10.0 mi NNW 3.5 mph - N/A   Clear
4:53 AM 26.1 °F 21.9 °F 18.0 °F 71% 30.35 in 10.0 mi West 3.5 mph - N/A   Clear
6:53 AM 21.9 °F 15.7 °F 18.0 °F 85% 30.44 in 10.0 mi WSW 4.6 mph - N/A   Clear
7:53 AM 24.1 °F 19.7 °F 17.1 °F 75% 30.43 in 10.0 mi WSW 3.5 mph - N/A   Clear
9:53 AM 43.0 °F - 19.0 °F 38% 30.31 in 10.0 mi Calm Calm - N/A   Clear
10:53 AM 51.1 °F - 12.0 °F 21% 30.27 in 10.0 mi SSE 4.6 mph - N/A   Clear
11:53 AM 54.0 °F - 10.0 °F 17% 30.25 in 10.0 mi WNW 6.9 mph - N/A   Clear
12:53 PM 55.0 °F - 9.0 °F 16% 30.21 in 10.0 mi West 5.8 mph - N/A   Clear
1:53 PM 57.9 °F - 12.0 °F 16% 30.19 in 10.0 mi West 9.2 mph - N/A   Clear
2:53 PM 50.0 °F - 19.0 °F 29% 30.21 in 10.0 mi SSE 8.1 mph - N/A   Clear
3:53 PM 48.0 °F - 19.0 °F 32% 30.21 in 10.0 mi SSE 6.9 mph - N/A   Clear
4:53 PM 45.0 °F 41.2 °F 17.1 °F 33% 30.21 in 10.0 mi WNW 6.9 mph - N/A   Clear
5:53 PM 41.0 °F 37.1 °F 15.1 °F 35% 30.24 in 10.0 mi North 5.8 mph - N/A   Clear
6:53 PM 37.9 °F - 17.1 °F 43% 30.28 in 10.0 mi Calm Calm - 0.00 in   Clear
7:53 PM 36.0 °F 29.6 °F 19.0 °F 50% 30.29 in 10.0 mi West 8.1 mph - 0.00 in Snow Light Snow
9:53 PM 33.1 °F - 19.9 °F 59% 30.23 in 10.0 mi Calm Calm - N/A   Clear
10:53 PM 30.9 °F - 21.0 °F 67% 30.21 in 10.0 mi Calm Calm - N/A   Partly Cloudy